Volver al catálogo

STARLINK-31978

ActivoComunicacionesVLEO
NORAD 60016·PAYLOAD·🇺🇸 United States

Lanzado Jun 8, 2024 desde Cape Canaveral Space Force Station

Loading…

Próximos Pases (próximas 24 horas)

TLE

ActualizadoSource: CelesTrak SupGP

Época: Sep 14, 2026, 22:36 UTC

1 60016C 24111A   26257.94215278  .00052121  00000+0  16765-2 0  2576
2 60016  53.1574 275.4317 0001097  89.1747 318.9269 15.31668136    11

Sigue STARLINK-31978 en tiempo real con AllMySat

Download on the App Store